Location: Harwich
(41.7160°N, 69.9939°W)
Time: 07:27:47
(UTC+02:00)

NOAA 18 - Visible Passes

Search period start: 19 September 2024 00:00
Search period end: 29 September 2024 00:00
Orbit: 837 x 858 km, 98.9° (Epoch: 18 September)

Date Brightness Start Highest point End Pass type
(mag) Time Alt. Az. Time Alt. Az. Time Alt. Az.
19 Sep 7.2 04:18:23 20° N 04:18:23 20° N 04:20:09 10° N visible
20 Sep 7.3 04:05:43 19° NNE 04:05:43 19° NNE 04:07:21 10° N visible
20 Sep 8.1 05:47:40 11° NW 05:47:40 11° NW 05:47:55 10° NNW visible
21 Sep 7.3 03:53:03 17° NNE 03:53:03 17° NNE 03:54:29 10° N visible
21 Sep 8.0 05:35:00 13° NNW 05:35:00 13° NNW 05:35:30 10° NNW visible
22 Sep 7.4 03:40:22 15° NNE 03:40:22 15° NNE 03:41:32 10° NNE visible
22 Sep 7.9 05:22:20 14° NNW 05:22:20 14° NNW 05:23:01 10° NNW visible
23 Sep 7.5 03:27:42 12° NNE 03:27:42 12° NNE 03:28:27 10° NNE visible
23 Sep 7.8 05:09:39 15° NNW 05:09:39 15° NNW 05:10:28 10° NNW visible
24 Sep 7.6 03:15:02 10° NNE 03:15:02 10° NNE 03:15:10 10° NNE visible
24 Sep 7.8 04:56:59 15° NNW 04:56:59 15° NNW 04:57:51 10° NNW visible
25 Sep 7.7 04:44:19 15° N 04:44:19 15° N 04:45:12 10° N visible
26 Sep 7.7 04:31:38 15° N 04:31:38 15° N 04:32:30 10° N visible
27 Sep 7.7 04:18:57 14° N 04:18:57 14° N 04:19:44 10° N visible
28 Sep 7.7 04:06:17 13° N 04:06:17 13° N 04:06:55 10° N visible
